Tracking 20041 objects as of 22-Nov-2019
Live streaming from Space Station
objects crossing your sky now

SL-8 DEB

Track SL-8 DEB now!
10-day predictions


NORAD ID: 27746
Int'l Code: 1991-009DB
Perigee: 1,485.0 km
Apogee: 1,765.1 km
Inclination: 74.1 °
Period: 118.6 minutes
Semi major axis: 7996 km
RCS: 0.0277 m2 (small)
Launch date: February 12, 1991
Source: Commonwealth of Independent States (former USSR) (CIS)
Launch site: PLESETSK MISSILE AND SPACE COMPLEX (PKMTR)

Note: This is SATELLITE DEBRIS
aabbcc
Your satellite tracking list
Your tracking list is empty




NASA's NSSDC Master Catalog

Two Line Element Set (TLE):
1 27746U 91009DB  19325.96805769 -.00000026 +00000-0 -11613-3 0  9990
2 27746 074.0998 163.9694 0175120 213.1630 218.9358 12.14202416282501
Source of the keplerian elements: AFSPC